Location: Jarocin
(51.9626°N, 17.5030°E)
Time: 18:15:17
(UTC+02:00)

N. Korean satellite - Visible Passes

Search period start: 22 October 2019 00:00
Search period end: 31 October 2019 23:00
Orbit: 455 x 508 km, 97.2° (Epoch: 21 October)

Date Brightness Start Highest point End Pass type
(mag) Time Alt. Az. Time Alt. Az. Time Alt. Az.
22 Oct 9.7 05:56:54 10° NE 05:59:34 19° E 06:02:14 10° SE visible
23 Oct 10.5 05:33:07 10° ENE 05:34:01 11° E 05:34:53 10° E visible
24 Oct 7.6 06:39:00 10° NNE 06:42:35 53° E 06:46:11 10° S visible
24 Oct 9.9 18:54:34 10° SW 18:56:47 16° W 18:59:02 10° NW visible
25 Oct 9.0 06:13:56 10° NNE 06:17:09 28° E 06:20:23 10° SSE visible
25 Oct 8.9 18:28:13 10° SSW 18:31:16 29° W 18:34:23 10° NNW visible
26 Oct 10.0 05:49:17 10° NE 05:51:39 16° E 05:54:01 10° SE visible
26 Oct 7.4 18:02:26 10° S 18:05:50 56° W 18:09:20 10° NNW visible
27 Oct 6.7 05:56:22 10° NNE 06:00:03 85° ESE 06:03:45 10° SSW visible
27 Oct 10.4 18:13:35 10° W 18:14:25 11° W 18:15:14 10° WNW visible
28 Oct 8.0 05:31:09 10° NNE 05:34:41 44° E 05:38:14 10° S visible
28 Oct 9.7 17:46:14 10° SW 17:48:48 19° W 17:51:27 10° NW visible
29 Oct 9.3 05:06:10 10° NE 05:09:14 24° E 05:12:18 10° SSE visible
29 Oct 8.4 17:20:05 10° SSW 17:23:18 35° W 17:26:36 10° NNW visible
30 Oct 10.2 04:41:41 10° NE 04:43:41 14° E 04:45:40 10° ESE visible
31 Oct 7.0 05:48:26 10° NNE 05:52:08 70° E 05:55:50 10° S visible
31 Oct 10.1 18:04:40 10° WSW 18:06:22 13° W 18:08:07 10° WNW visible
